Torna al catalogo

STARLINK-33779

AttivoComunicazioniVLEO
NORAD 63880·PAYLOAD·🇺🇸 United States

Lanciato May 10, 2025 da Vandenberg Space Force Base

Loading…

Prossimi Passaggi (prossime 24 ore)

TLE

AggiornatoSource: CelesTrak SupGP

Epoca: Sep 14, 2026, 21:03 UTC

1 63880C 25094S   26257.87756944  .00000676  00000+0  23539-4 0  2578
2 63880  69.9987 116.0566 0003652 267.6508 204.9435 15.29552229    10

Traccia STARLINK-33779 in tempo reale con AllMySat

Download on the App Store